GFSMA_sfc_temp_057.txt.gz
Temp
67 70 70 71 72 71 71 69 70 70 70 70 70 70 69 70 70 73 74 66 67 69 70 70 69 68 67 66 66 65 65 65 64 64 63 62 62 61 61 61 60 60 60
67 70 70 70 70 71 71 71 69 70 70 70 68 69 69 70 70 70 73 72 65 67 69 70 69 69 68 67 66 65 65 65 64 64 62 62 61 61 60 60 59 59 59
67 69 70 68 70 70 70 68 68 69 69 70 68 68 69 68 69 69 71 72 70 64 66 68 69 68 68 67 66 66 65 64 64 63 62 61 61 60 59 59 59 59 59
68 67 69 69 70 69 70 69 68 68 68 69 67 68 68 68 68 68 69 70 71 72 66 65 66 67 67 67 67 66 65 64 64 63 62 61 60 60 59 58 58 58 58
67 70 70 67 68 69 68 68 67 67 65 66 67 68 67 67 66 68 67 66 67 69 71 64 63 64 66 67 67 67 66 65 64 64 63 61 61 60 59 58 58 58 58
69 68 67 67 68 68 67 67 65 66 66 66 66 63 62 64 64 65 66 67 68 67 68 67 69 69 62 65 67 67 68 67 65 64 64 62 61 60 59 58 58 57 57
68 66 66 66 67 67 65 66 66 64 63 63 63 62 64 62 63 66 67 68 66 66 66 67 69 71 70 63 65 67 68 68 68 66 64 63 62 61 59 59 58 57 57
69 67 66 65 65 66 64 64 65 63 65 63 64 63 62 64 64 64 65 63 64 62 61 65 66 67 70 71 68 65 67 67 68 67 66 64 63 62 60 59 58 58 57
68 68 67 65 64 64 65 62 64 64 63 62 64 66 59 59 63 63 61 62 59 60 58 59 63 58 62 68 65 64 60 61 64 66 66 65 64 63 61 60 59 58 58
64 66 64 62 61 61 63 62 64 63 63 62 61 62 62 64 61 59 55 62 61 55 62 62 64 63 59 66 62 58 54 53 57 61 64 65 65 64 62 61 60 59 58
63 64 62 63 63 62 64 63 62 61 62 62 62 60 59 53 54 58 56 56 58 55 65 64 61 60 61 58 60 55 52 52 53 57 60 62 63 64 64 62 61 60 59
60 60 60 60 63 65 65 65 64 63 62 63 63 58 54 51 53 54 54 57 61 60 64 62 61 58 53 53 55 54 52 50 51 53 56 58 60 61 62 63 62 61 61
60 61 62 61 65 65 65 65 64 63 63 62 63 61 55 54 55 55 55 53 59 59 60 60 61 56 52 54 51 52 52 49 49 51 52 54 55 57 59 60 61 62 62
65 67 63 64 64 65 66 65 65 64 63 62 62 58 55 55 57 58 59 50 46 48 56 50 52 59 57 61 57 50 53 48 48 48 49 51 52 53 54 55 57 58 59
64 64 65 66 66 66 66 67 65 64 62 61 58 57 55 56 58 56 60 58 56 48 44 50 55 55 57 58 55 52 53 52 47 47 47 48 49 50 51 52 53 54 55
65 64 64 66 67 67 67 65 65 64 60 59 58 56 56 57 56 54 56 57 53 53 50 55 51 50 50 52 53 56 56 48 48 46 45 46 46 48 48 49 50 50 52
64 64 64 65 65 65 65 65 64 62 58 58 60 58 60 59 54 52 52 56 50 53 51 45 46 47 52 49 54 53 53 53 53 46 44 45 45 45 45 46 46 47 48
64 64 65 64 65 65 63 62 61 59 57 55 56 55 56 54 55 53 49 50 50 53 44 44 47 44 46 47 47 49 52 53 53 48 44 44 44 44 44 44 44 44 45
62 63 64 64 63 62 60 57 58 57 56 55 55 53 54 52 50 51 49 51 49 44 46 41 41 43 43 43 47 49 49 49 50 47 44 43 44 44 43 43 43 43 43
61 63 63 64 64 64 61 58 56 55 55 54 53 53 53 50 49 48 47 45 42 45 40 43 40 39 42 47 47 45 45 47 45 47 45 42 41 42 42 42 42 42 42
61 63 63 62 63 63 62 60 57 55 53 52 51 51 52 49 46 46 45 42 41 40 38 39 37 38 42 44 43 45 41 43 43 44 44 45 45 45 44 43 44 43 42
63 63 63 62 60 59 49 46 51 54 53 52 48 48 46 44 42 40 41 40 42 39 37 36 37 39 41 41 42 40 39 37 38 46 41 41 44 41 44 45 42 40 39
63 63 61 61 59 60 45 45 44 52 50 49 45 44 43 41 39 37 36 35 35 35 36 37 37 38 39 40 38 37 37 37 37 41 39 37 43 41 45 45 41 40 39
62 60 59 58 56 53 44 44 42 47 45 44 44 42 39 37 36 35 35 34 34 34 35 35 38 40 40 40 38 37 36 37 38 39 39 34 42 39 43 44 41 40 39
51 49 48 47 46 43 41 40 42 41 39 38 39 39 37 35 35 36 33 31 30 32 34 34 33 32 32 32 33 35 33 32 30 36 39 35 38 37 38 39 43 39 37
44 43 42 42 40 40 38 39 40 37 34 33 33 33 34 34 33 33 32 31 30 32 33 33 35 33 32 32 30 34 34 28 30 29 37 32 34 34 31 40 43 43 43

GFSMA_sfc_temp_060.txt.gz
Temp
71 77 78 78 79 81 79 79 79 77 77 77 78 77 77 78 78 80 77 66 67 69 70 70 69 69 67 67 66 65 65 65 65 64 63 63 62 62 61 61 61 61 61
73 76 75 78 79 80 81 80 78 78 78 78 77 77 77 77 78 78 79 74 66 67 69 70 69 69 68 67 66 66 65 65 65 64 63 62 61 61 61 60 60 60 60
72 74 76 76 79 80 79 79 78 79 79 79 76 77 77 76 77 76 78 78 73 64 66 68 69 69 68 67 66 66 65 65 65 64 63 62 61 61 60 60 59 59 59
70 71 73 75 77 78 78 78 78 77 77 78 76 77 77 76 75 75 77 77 77 77 67 66 67 68 68 68 67 66 66 65 65 64 63 62 61 60 60 59 59 58 59
72 72 73 73 76 77 76 77 76 77 75 76 76 76 76 76 75 75 74 74 74 76 77 64 64 65 66 67 67 67 67 65 65 64 63 62 61 61 60 59 59 59 59
74 74 75 73 76 76 76 76 74 75 75 75 76 74 74 74 75 74 73 74 74 73 75 75 72 71 63 66 67 68 68 67 66 65 64 63 62 61 60 59 59 59 59
74 74 75 74 76 76 75 73 72 71 72 74 72 70 70 71 70 72 73 75 75 74 74 75 74 77 72 64 65 67 68 69 67 66 65 64 63 62 61 60 59 59 59
74 72 70 73 74 75 73 71 70 71 73 72 70 71 65 68 71 72 74 73 72 75 74 72 71 71 73 75 67 65 67 69 69 68 66 65 64 63 62 61 60 60 59
74 73 69 74 73 73 71 70 70 69 69 69 71 71 67 65 72 73 70 72 70 71 72 71 64 71 73 74 70 66 61 62 65 67 67 66 65 64 63 62 61 60 60
72 73 70 73 71 71 71 71 71 69 71 68 67 70 72 70 67 62 71 67 70 61 65 65 70 72 72 72 66 62 57 57 58 62 64 65 66 65 65 63 63 62 61
69 69 69 71 69 69 69 69 67 65 69 68 70 70 68 69 66 60 54 61 61 66 68 67 71 72 72 70 71 66 55 52 53 57 60 61 62 63 64 64 64 62 61
67 67 70 70 70 69 67 62 65 68 69 69 71 70 69 66 65 62 51 51 54 63 63 71 71 71 71 71 66 57 53 51 52 54 56 58 59 60 61 62 63 63 63
66 66 67 68 69 68 66 66 67 70 69 68 69 70 70 69 70 64 54 51 54 54 64 68 66 67 71 69 64 55 53 50 50 52 53 54 55 56 56 58 59 60 61
68 65 63 70 72 68 68 72 71 71 70 69 68 69 71 70 69 64 58 51 48 52 62 63 68 67 69 67 61 52 62 50 49 49 50 51 52 52 53 54 55 56 57
66 63 63 65 69 71 70 71 71 70 70 69 69 70 70 69 65 63 57 56 53 50 56 63 62 65 61 67 60 59 63 53 49 48 47 48 49 50 51 51 52 52 53
72 70 69 68 69 70 71 70 70 71 70 71 71 69 69 69 65 62 59 54 54 54 52 66 62 60 60 60 50 54 61 50 49 47 46 46 47 48 48 49 49 49 50
72 72 71 71 71 71 72 72 72 72 72 71 70 69 66 61 58 56 56 56 55 56 54 59 58 59 49 50 53 55 59 57 61 47 46 45 45 45 45 46 46 46 47
72 72 72 71 71 72 73 72 71 71 71 70 69 65 63 57 57 56 53 52 54 58 56 52 47 57 52 49 50 54 56 57 60 51 47 45 44 44 43 43 44 44 44
70 70 71 70 70 70 71 71 70 69 69 65 61 60 58 56 54 53 51 52 53 51 54 47 50 44 47 49 47 51 51 56 58 51 45 44 44 44 43 43 43 43 43
68 69 70 70 69 71 70 71 69 66 63 60 58 58 58 56 55 54 52 51 48 45 47 44 42 42 41 47 47 47 52 55 54 56 51 46 44 45 43 43 42 43 42
69 69 69 69 69 67 69 69 67 64 60 59 60 57 56 54 51 52 49 48 46 43 43 41 39 40 38 41 41 47 50 51 52 52 51 52 52 52 50 46 46 44 43
68 68 68 68 68 68 55 49 57 66 62 60 58 55 56 47 47 43 43 43 45 43 41 38 37 38 40 42 46 46 47 45 44 54 47 48 50 48 51 52 45 42 42
68 68 69 69 68 69 49 45 45 63 60 58 56 53 48 46 44 42 37 36 35 37 40 40 37 38 40 42 44 45 44 44 44 48 46 43 48 47 52 52 43 42 41
67 67 67 68 64 64 47 45 44 54 56 54 51 48 45 42 41 38 37 34 33 34 35 37 40 40 42 43 44 45 43 43 43 44 46 38 47 45 48 49 43 42 41
67 66 66 66 64 60 44 43 43 45 42 40 41 41 40 37 36 37 33 31 30 31 33 34 34 33 33 33 36 43 38 37 35 41 45 41 42 42 43 43 45 42 40
62 50 43 44 40 43 39 41 43 41 36 35 35 36 36 35 33 34 34 32 29 29 32 32 31 31 34 34 31 37 39 34 34 34 42 37 39 39 36 43 44 43 45

GFSMA_sfc_temp_063.txt.gz
Temp
75 75 73 75 76 78 76 76 79 79 79 79 79 79 79 80 79 78 74 66 68 70 70 70 69 68 67 66 66 65 65 65 65 64 63 63 62 62 62 61 61 61 61
71 73 72 75 77 79 79 79 80 79 79 79 78 78 79 79 80 78 76 72 66 68 69 70 70 69 68 67 66 66 65 65 65 64 63 62 62 62 61 61 61 60 60
71 75 77 78 79 81 80 81 79 79 79 80 77 78 79 78 79 79 77 75 71 65 66 68 69 69 68 68 66 66 66 65 65 64 63 62 62 61 61 60 60 60 60
72 73 76 77 79 79 80 79 79 78 79 78 77 77 78 78 77 78 79 78 75 75 66 66 67 68 68 68 67 67 66 65 65 64 63 62 62 61 61 60 60 59 59
72 73 75 77 78 78 77 78 78 78 76 77 77 78 78 78 76 78 77 77 76 76 75 65 64 65 66 67 68 67 67 66 65 65 64 63 62 61 61 60 60 59 59
71 71 74 74 76 73 71 75 76 77 77 77 79 77 77 77 77 76 76 77 77 75 76 73 69 68 63 66 67 68 68 67 66 65 65 64 63 62 61 61 60 60 60
73 73 73 71 72 71 71 73 75 73 74 76 75 74 74 74 74 75 76 75 74 74 74 75 74 73 69 64 66 68 69 69 68 66 66 65 64 62 62 61 61 60 60
75 74 74 71 71 74 73 72 71 72 74 74 71 70 65 69 71 72 74 73 73 75 74 74 73 74 75 71 68 66 68 69 69 68 66 65 64 64 62 62 61 61 60
75 74 72 72 71 73 70 70 72 72 71 72 72 70 65 65 69 72 70 73 72 72 72 74 73 73 73 74 70 66 62 63 66 68 68 66 65 64 64 63 62 62 61
72 72 67 66 71 72 71 70 73 71 71 68 70 70 71 70 62 61 71 70 72 65 63 62 67 72 72 73 70 65 59 58 61 64 66 67 66 66 65 64 64 63 63
67 66 68 66 65 71 70 69 69 69 71 65 67 68 68 69 69 64 61 66 68 69 67 60 62 69 72 73 73 68 56 55 56 60 62 64 64 65 64 64 64 64 64
67 68 68 66 64 65 67 68 68 68 68 69 66 70 68 67 66 65 62 64 62 62 60 59 57 62 72 74 70 61 55 53 53 56 58 60 61 61 62 62 62 62 63
66 68 68 68 67 65 66 68 68 68 69 67 68 68 69 68 71 70 67 63 61 62 61 61 59 61 70 72 70 61 53 51 51 52 54 56 57 57 58 58 59 59 60
68 68 68 69 70 69 65 67 69 69 69 68 68 69 68 69 71 70 67 63 57 56 59 60 61 62 67 68 66 54 64 50 50 50 51 53 53 54 54 55 55 56 56
70 69 69 69 70 70 70 70 68 66 68 65 68 68 68 68 70 70 69 67 62 55 58 61 55 63 66 69 62 61 59 51 50 49 48 49 50 51 52 52 52 53 53
71 71 70 68 68 68 68 71 69 69 68 69 69 68 68 69 69 69 69 64 62 60 53 62 59 63 63 66 59 60 62 50 49 47 47 47 48 49 49 49 50 50 50
71 71 69 69 69 69 70 68 70 71 70 69 70 69 68 70 68 68 65 65 62 57 53 59 52 53 59 57 57 57 60 60 58 48 47 46 45 45 46 46 46 46 47
72 73 73 71 71 71 71 70 69 71 70 69 69 69 68 69 67 67 64 59 58 56 53 51 49 49 49 51 53 54 57 59 59 52 48 46 45 44 44 44 44 44 44
73 73 73 73 73 72 72 72 71 71 71 71 71 70 70 69 66 60 58 55 55 52 52 51 49 47 48 52 49 49 50 50 56 51 45 44 44 44 44 44 43 43 43
73 71 70 72 72 73 73 72 72 71 70 71 70 70 70 69 64 59 56 55 55 51 51 49 49 43 44 44 44 43 43 47 50 58 54 50 47 45 44 43 43 43 43
73 73 72 72 72 72 73 71 71 70 70 69 68 70 66 61 53 55 58 56 53 50 49 47 45 39 40 39 40 41 40 43 48 53 53 53 53 51 51 44 44 44 43
71 71 71 71 70 72 58 51 60 70 70 69 66 66 61 52 52 46 45 47 51 50 46 44 43 41 40 39 39 38 38 38 39 50 50 50 52 49 50 52 47 44 43
71 70 70 70 69 70 52 48 47 67 67 68 65 62 61 58 49 53 40 37 37 37 38 44 41 38 36 37 38 36 37 39 40 46 48 44 49 46 50 52 44 43 42
70 69 69 69 69 70 50 47 45 60 63 65 65 64 61 54 47 41 37 35 33 34 34 37 36 34 35 37 36 38 40 42 43 46 47 38 45 44 48 48 44 43 42
70 70 70 68 67 68 45 43 44 54 54 44 41 42 42 39 39 39 35 32 31 30 33 34 33 32 32 32 33 39 35 37 36 40 45 42 42 40 43 42 43 43 41
69 67 56 47 41 46 39 40 43 41 36 34 34 35 35 35 35 36 35 34 29 28 28 28 29 33 35 33 33 36 40 35 35 34 42 37 39 39 35 42 42 43 42

GFSMA_sfc_temp_066.txt.gz
Temp
67 69 68 68 69 68 68 67 67 69 68 69 69 70 71 72 69 68 66 66 67 69 70 70 69 68 67 66 66 66 65 65 65 64 64 63 63 62 62 62 62 61 61
67 69 68 69 69 69 70 69 71 68 68 69 68 70 73 73 69 67 66 64 65 67 69 70 69 68 67 67 66 66 66 65 65 64 63 63 62 62 62 61 61 61 61
67 68 67 67 70 70 70 69 72 68 67 70 68 68 69 70 71 68 67 65 64 65 66 68 69 69 68 67 66 66 66 65 65 64 63 63 62 62 61 61 60 60 60
68 66 66 68 71 71 71 69 68 67 66 66 65 66 67 68 69 69 68 67 66 67 64 65 67 68 68 68 67 67 66 65 65 64 64 63 62 62 61 61 60 60 60
67 66 64 66 72 69 70 70 67 67 65 65 66 65 65 65 66 71 71 68 66 67 65 64 64 65 66 67 68 67 67 66 66 65 64 63 62 62 61 61 60 60 60
67 67 66 65 66 66 67 67 66 66 66 65 73 68 64 65 65 64 65 69 67 67 67 66 64 64 63 66 67 68 68 68 67 66 65 64 63 62 62 61 61 61 61
68 67 66 67 67 66 66 66 65 65 64 66 64 61 62 64 63 63 64 64 65 66 65 65 64 64 63 63 66 67 69 69 68 67 66 65 64 63 62 62 61 61 61
67 67 66 65 66 66 64 64 64 63 64 65 62 60 55 58 61 63 62 63 62 63 65 66 65 65 65 63 63 66 68 69 69 68 67 65 65 64 63 62 62 62 61
67 67 66 66 64 65 63 64 64 64 61 62 63 61 55 53 57 60 60 60 60 60 63 64 64 65 64 63 63 63 62 63 67 68 67 66 65 65 64 64 63 62 62
67 69 68 66 66 65 63 63 66 64 63 61 60 64 61 61 56 53 59 60 60 61 60 60 62 66 67 63 62 61 58 58 61 65 67 67 66 65 65 64 64 64 63
64 64 68 64 64 66 63 63 63 64 63 60 60 60 59 59 58 54 51 55 59 59 58 60 60 58 62 65 64 62 58 56 58 61 64 66 66 66 65 65 64 64 64
63 62 66 63 62 62 63 62 63 61 61 62 60 60 60 58 57 55 52 54 54 55 56 56 55 57 59 60 64 62 56 54 55 58 60 63 64 64 65 65 64 64 64
62 63 62 61 62 63 63 63 62 61 62 61 61 61 61 61 61 59 55 55 53 55 54 55 57 57 60 60 62 60 56 53 54 55 57 58 59 60 61 62 62 62 62
64 65 63 62 62 64 64 62 61 60 60 60 62 62 62 62 61 60 60 55 51 52 53 54 57 58 59 61 61 59 58 52 51 52 53 54 55 56 56 57 58 58 58
64 64 63 62 62 63 64 65 63 62 62 62 62 61 62 63 61 60 60 59 57 51 53 54 55 59 59 60 60 57 57 51 50 49 49 51 52 53 53 53 54 54 55
64 65 64 64 64 64 65 64 63 63 62 63 63 63 63 64 62 61 62 59 59 57 53 56 55 56 58 61 60 58 57 52 49 48 48 48 49 50 51 51 51 51 51
64 65 65 65 64 64 65 64 64 64 63 63 64 63 62 62 61 60 60 61 60 59 55 59 57 55 55 56 55 53 54 52 50 47 47 47 46 47 47 47 48 48 48
64 65 66 66 66 65 65 64 63 66 64 63 63 63 63 64 61 62 61 60 59 58 56 55 56 53 51 52 53 49 52 55 54 48 47 47 46 45 44 44 44 44 44
65 65 66 66 65 64 64 64 64 64 64 65 65 64 63 62 61 61 61 60 59 58 56 54 54 51 50 46 46 48 48 48 52 51 46 45 45 45 44 44 44 44 43
66 66 66 66 66 66 66 66 65 64 64 64 64 64 64 64 63 62 61 60 59 56 55 53 52 50 46 44 48 45 44 45 46 50 47 45 44 44 44 44 44 43 43
67 67 66 66 67 67 68 66 66 65 64 64 64 65 65 62 57 58 62 59 57 55 54 52 50 48 43 39 42 44 44 43 43 44 43 43 43 42 42 43 44 44 43
67 67 66 66 66 68 57 51 58 65 65 64 63 64 64 54 53 48 47 48 54 54 53 52 52 49 45 44 42 40 39 35 34 41 38 38 42 42 45 43 45 43 43
66 66 66 66 66 66 52 49 48 63 65 64 63 62 62 61 51 55 45 42 38 37 40 52 50 46 37 37 38 35 33 33 32 35 36 33 41 39 44 49 44 44 43
65 65 65 65 64 66 48 46 44 55 60 62 61 60 58 57 55 52 39 34 33 33 35 37 35 35 36 37 37 36 34 33 33 34 37 30 37 36 41 40 43 43 42
65 64 65 64 63 62 39 41 45 56 57 45 39 39 40 40 38 39 35 32 31 30 33 34 34 33 33 33 34 33 31 30 29 31 37 33 33 33 33 35 37 42 41
65 60 44 41 38 40 37 40 43 44 37 34 34 34 35 35 35 36 34 32 28 28 29 28 29 30 30 30 31 31 32 30 30 29 32 31 33 32 28 33 33 33 33